Weather Roundup
Issued by NWS

Home | Current Version | Previous Version | Text Only | Print | Product List | Glossary On
Versions: 1 2 3 4 5 6 7 8 9 10 11 12 13 14 15 16 17 18 19 20 21 22 23 24 25 26 27 28 29 30 31 32 33 34 35 36 37 38 39 40 41 42 43 44 45 46 47 48 49 50
000
NZUS93 KARX 280110
HRRWXR

CURRENT HOURLY OBSERVATIONS ACROSS
MUCH OF THE UPPER MISSISSIPPI VALLEY
NATIONAL WEATHER SERVICE LA CROSSE WI
700 PM CST MON FEB 27 2017


...SOUTHEAST MINNESOTA...


CITY           SKY/WX    TMP DP  RH WIND       PRES   REMARKS
ROCHESTER      CLOUDY    37  30  75 SE16      29.88F WCI  28
ROCHESTER/MAYO CLOUDY    38  30  71 E9        29.88F WCI  32
WINONA         CLEAR     37  30  75 CALM      29.94F
AUSTIN         MOCLDY    36  30  80 SE6       29.86S WCI  31
ALBERT LEA     CLOUDY    37  30  75 SE7       29.85F WCI  32
DODGE CENTER   NOT AVBL
PRESTON        MOCLDY    38  30  71 SE9       29.89F WCI  32
OWATONNA       CLOUDY    37  28  70 E9G20     29.86F WCI  31
FARIBAULT      CLOUDY    36  28  75 E5        29.88R WCI  32
$$

...ELSEWHERE IN MINNESOTA...


CITY           SKY/WX    TMP DP  RH WIND       PRES   REMARKS
MINNEAPOLIS    CLOUDY    38  24  57 S6        29.90R WCI  33
INTNL FALLS    CLOUDY    25   8  48 NE5       29.87S WCI  19
DULUTH         CLOUDY    26  24  92 E17       29.86S WCI  13
RED WING       MOCLDY    39  25  56 E7        29.90F WCI  34
REDWOOD FALLS  CLOUDY    36  27  69 SE12      29.82R WCI  28
MANKATO          N/A     35  29  78 SE10      29.85F WCI  27
WORTHINGTON    CLOUDY    34  30  85 SE7       29.79R WCI  28
FAIRMONT       CLOUDY    35  31  85 SE7       29.83F WCI  29
$$

...SOUTHWEST WISCONSIN...


CITY           SKY/WX    TMP DP  RH WIND       PRES   REMARKS
LA CROSSE      CLEAR     42  30  62 SE8       29.95F
PRAIRIE DU CHI MOCLDY    43  32  65 E8        29.96S
BOSCOBEL       MOCLDY    37  31  78 NE3       29.98S
LONE ROCK      PTCLDY    38  31  76 E3        30.00S
PLATTEVILLE    CLOUDY    42  32  67 E8        29.98S
FORT MC COY    CLEAR     34  28  80 E6        29.98S WCI  29
CAMP DOUGLAS   MOCLDY    34  28  80 E5        29.98F WCI  30
MAUSTON-NEW LI PTCLDY    34  30  85 CALM      29.98F
VIROQUA        FAIR      38  32  79 SE7       29.95F WCI  33
WIS DELLS      PTCLDY    37  31  79 CALM      30.00S
$$

...ELSEWHERE IN WISCONSIN...


CITY           SKY/WX    TMP DP  RH WIND       PRES   REMARKS
MILWAUKEE      CLOUDY    42  33  70 S7        30.06S
MADISON        CLOUDY    39  29  67 E3        30.01S
GREEN BAY      CLEAR     34  31  88 SE5       30.05S WCI  30
EAU CLAIRE     MOCLDY    37  21  52 SE7       29.93F WCI  32
BLACK RVR FLS  FAIR      35  25  66 SE3       29.96F
MEDFORD        MOCLDY    31  18  60 SE6       29.96R WCI  25
WAUSAU         CLOUDY    36  21  54 SE7       29.98R WCI  30
WIS RAPIDS     CLEAR     35  27  72 SE5       30.01S WCI  31
MARSHFIELD     CLEAR     36  24  62 SE6       29.97R WCI  31
RICE LAKE      CLEAR     34  22  60 SE7       29.93F WCI  28
$$

...NORTHEAST IOWA...


CITY           SKY/WX    TMP DP  RH WIND       PRES   REMARKS
WATERLOO       CLOUDY    46  30  53 SE9       29.90S
DUBUQUE        CLOUDY    44  33  65 SE8       29.96F
DECORAH        CLOUDY    43  32  65 SE8       29.90F
MASON CITY     MOCLDY    40  31  70 SE12      29.85F WCI  33
CHARLES CITY   CLOUDY    41  34  75 SE12      29.88F
OELWEIN        CLOUDY    43  34  70 SE13      29.91F
$$

...ELSEWHERE IN IOWA...


CITY           SKY/WX    TMP DP  RH WIND       PRES   REMARKS
DES MOINES     CLOUDY    52  27  38 SE10      29.86R
IOWA CITY      CLOUDY    50  32  50 SE6       29.94F
FORT DODGE     MOCLDY    39  30  70 E10       29.81F WCI  32
MARSHALLTOWN   CLOUDY    47  30  51 SE10      29.86F
CEDAR RAPIDS   CLOUDY    46  30  53 E6        29.92S
$$

...NORTHERN ILLINOIS...


CITY           SKY/WX    TMP DP  RH WIND       PRES   REMARKS
CHICAGO-OHARE  CLOUDY    47  34  60 E7        30.06S
CHICAGO-MIDWAY CLOUDY    47  33  58 E7        30.07S
MOLINE         CLOUDY    46  31  55 E10       29.96F
ROCKFORD       CLOUDY    47  34  60 SE8       30.04S
PEORIA         PTCLDY    53  34  48 SE7       30.00F
$$

NOTE: "FAIR" INDICATES FEW OR NO CLOUDS BELOW 12,000 FEET WITH NO
SIGNIFICANT WEATHER AND/OR OBSTRUCTIONS TO VISIBILITY. WIND
SPEEDS ARE IN MILES-PER-HOUR.




USA.gov is the U.S. government's official web portal to all federal, state and local government web resources and services.